Year,Month,Day,Hour,Minute,Value (Times are PST for insolation in W/m^2)
2021,12,30,00,00,0.00
2021,12,30,00,01,0.00
2021,12,30,00,02,0.00
2021,12,30,00,03,0.00
2021,12,30,00,04,0.00
2021,12,30,00,05,0.00
2021,12,30,00,06,0.00
2021,12,30,00,07,0.00
2021,12,30,00,08,0.00
2021,12,30,00,09,0.00
2021,12,30,00,10,0.00
2021,12,30,00,11,0.00
2021,12,30,00,12,0.00
2021,12,30,00,13,0.00
2021,12,30,00,14,0.00
2021,12,30,00,15,0.00
2021,12,30,00,16,0.00
2021,12,30,00,17,0.00
2021,12,30,00,18,0.00
2021,12,30,00,19,0.00
2021,12,30,00,20,0.00
2021,12,30,00,21,0.00
2021,12,30,00,22,0.00
2021,12,30,00,23,0.00
2021,12,30,00,24,0.00
2021,12,30,00,25,0.00
2021,12,30,00,26,0.00
2021,12,30,00,27,0.00
2021,12,30,00,28,0.00
2021,12,30,00,29,0.00
2021,12,30,00,30,0.00
2021,12,30,00,31,0.00
2021,12,30,00,32,0.00
2021,12,30,00,33,0.00
2021,12,30,00,34,0.00
2021,12,30,00,35,0.00
2021,12,30,00,36,0.00
2021,12,30,00,37,0.00
2021,12,30,00,38,0.00
2021,12,30,00,39,0.00
2021,12,30,00,40,0.00
2021,12,30,00,41,0.00
2021,12,30,00,42,0.00
2021,12,30,00,43,0.00
2021,12,30,00,44,0.00
2021,12,30,00,45,0.00
2021,12,30,00,46,0.00
2021,12,30,00,47,0.00
2021,12,30,00,48,0.00
2021,12,30,00,49,0.00
2021,12,30,00,50,0.00
2021,12,30,00,51,0.00
2021,12,30,00,52,0.00
2021,12,30,00,53,0.00
2021,12,30,00,54,0.00
2021,12,30,00,55,0.00
2021,12,30,00,56,0.00
2021,12,30,00,57,0.00
2021,12,30,00,58,0.00
2021,12,30,00,59,0.00
2021,12,30,01,00,0.00
2021,12,30,01,01,0.00
2021,12,30,01,02,0.00
2021,12,30,01,03,0.00
2021,12,30,01,04,0.00
2021,12,30,01,05,0.00
2021,12,30,01,06,0.00
2021,12,30,01,07,0.00
2021,12,30,01,08,0.00
2021,12,30,01,09,0.00
2021,12,30,01,10,0.00
2021,12,30,01,11,0.00
2021,12,30,01,12,0.00
2021,12,30,01,13,0.00
2021,12,30,01,14,0.00
2021,12,30,01,15,0.00
2021,12,30,01,16,0.00
2021,12,30,01,17,0.00
2021,12,30,01,18,0.00
2021,12,30,01,19,0.00
2021,12,30,01,20,0.00
2021,12,30,01,21,0.00
2021,12,30,01,22,0.00
2021,12,30,01,23,0.00
2021,12,30,01,24,0.00
2021,12,30,01,25,0.00
2021,12,30,01,26,0.00
2021,12,30,01,27,0.00
2021,12,30,01,28,0.00
2021,12,30,01,29,0.00
2021,12,30,01,30,0.00
2021,12,30,01,31,0.00
2021,12,30,01,32,0.00
2021,12,30,01,33,0.00
2021,12,30,01,34,0.00
2021,12,30,01,35,0.00
2021,12,30,01,36,0.00
2021,12,30,01,37,0.00
2021,12,30,01,38,0.00
2021,12,30,01,39,0.00
2021,12,30,01,40,0.00
2021,12,30,01,41,0.00
2021,12,30,01,42,0.00
2021,12,30,01,43,0.00
2021,12,30,01,44,0.00
2021,12,30,01,45,0.00
2021,12,30,01,46,0.00
2021,12,30,01,47,0.00
2021,12,30,01,48,0.00
2021,12,30,01,49,0.00
2021,12,30,01,50,0.00
2021,12,30,01,51,0.00
2021,12,30,01,52,0.00
2021,12,30,01,53,0.00
2021,12,30,01,54,0.00
2021,12,30,01,55,0.00
2021,12,30,01,56,0.00
2021,12,30,01,57,0.00
2021,12,30,01,58,0.00
2021,12,30,01,59,0.00
2021,12,30,02,00,0.00
2021,12,30,02,01,0.00
2021,12,30,02,02,0.00
2021,12,30,02,03,0.00
2021,12,30,02,04,0.00
2021,12,30,02,05,0.00
2021,12,30,02,06,0.00
2021,12,30,02,07,0.00
2021,12,30,02,08,0.00
2021,12,30,02,09,0.00
2021,12,30,02,10,0.00
2021,12,30,02,11,0.00
2021,12,30,02,12,0.00
2021,12,30,02,13,0.00
2021,12,30,02,14,0.00
2021,12,30,02,15,0.00
2021,12,30,02,16,0.00
2021,12,30,02,17,0.00
2021,12,30,02,18,0.00
2021,12,30,02,19,0.00
2021,12,30,02,20,0.00
2021,12,30,02,21,0.00
2021,12,30,02,22,0.00
2021,12,30,02,23,0.00
2021,12,30,02,24,0.00
2021,12,30,02,25,0.00
2021,12,30,02,26,0.00
2021,12,30,02,27,0.00
2021,12,30,02,28,0.00
2021,12,30,02,29,0.00
2021,12,30,02,30,0.00
2021,12,30,02,31,0.00
2021,12,30,02,32,0.00
2021,12,30,02,33,0.00
2021,12,30,02,34,0.00
2021,12,30,02,35,0.00
2021,12,30,02,36,0.00
2021,12,30,02,37,0.00
2021,12,30,02,38,0.00
2021,12,30,02,39,0.00
2021,12,30,02,40,0.00
2021,12,30,02,41,0.00
2021,12,30,02,42,0.00
2021,12,30,02,43,0.00
2021,12,30,02,44,0.00
2021,12,30,02,45,0.00
2021,12,30,02,46,0.00
2021,12,30,02,47,0.00
2021,12,30,02,48,0.00
2021,12,30,02,49,0.00
2021,12,30,02,50,0.00
2021,12,30,02,51,0.00
2021,12,30,02,52,0.00
2021,12,30,02,53,0.00
2021,12,30,02,54,0.00
2021,12,30,02,55,0.00
2021,12,30,02,56,0.00
2021,12,30,02,57,0.00
2021,12,30,02,58,0.00
2021,12,30,02,59,0.00
2021,12,30,03,00,0.00
2021,12,30,03,01,0.00
2021,12,30,03,02,0.00
2021,12,30,03,03,0.00
2021,12,30,03,04,0.00
2021,12,30,03,05,0.00
2021,12,30,03,06,0.00
2021,12,30,03,07,0.00
2021,12,30,03,08,0.00
2021,12,30,03,09,0.00
2021,12,30,03,10,0.00
2021,12,30,03,11,0.00
2021,12,30,03,12,0.00
2021,12,30,03,13,0.00
2021,12,30,03,14,0.00
2021,12,30,03,15,0.00
2021,12,30,03,16,0.00
2021,12,30,03,17,0.00
2021,12,30,03,18,0.00
2021,12,30,03,19,0.00
2021,12,30,03,20,0.00
2021,12,30,03,21,0.00
2021,12,30,03,22,0.00
2021,12,30,03,23,0.00
2021,12,30,03,24,0.00
2021,12,30,03,25,0.00
2021,12,30,03,26,0.00
2021,12,30,03,27,0.00
2021,12,30,03,28,0.00
2021,12,30,03,29,0.00
2021,12,30,03,30,0.00
2021,12,30,03,31,0.00
2021,12,30,03,32,0.00
2021,12,30,03,33,0.00
2021,12,30,03,34,0.00
2021,12,30,03,35,0.00
2021,12,30,03,36,0.00
2021,12,30,03,37,0.00
2021,12,30,03,38,0.00
2021,12,30,03,39,0.00
2021,12,30,03,40,0.00
2021,12,30,03,41,0.00
2021,12,30,03,42,0.00
2021,12,30,03,43,0.00
2021,12,30,03,44,0.00
2021,12,30,03,45,0.00
2021,12,30,03,46,0.00
2021,12,30,03,47,0.00
2021,12,30,03,48,0.00
2021,12,30,03,49,0.00
2021,12,30,03,50,0.00
2021,12,30,03,51,0.00
2021,12,30,03,52,0.00
2021,12,30,03,53,0.00
2021,12,30,03,54,0.00
2021,12,30,03,55,0.00
2021,12,30,03,56,0.00
2021,12,30,03,57,0.00
2021,12,30,03,58,0.00
2021,12,30,03,59,0.00
2021,12,30,04,00,0.00
2021,12,30,04,01,0.00
2021,12,30,04,02,0.00
2021,12,30,04,03,0.00
2021,12,30,04,04,0.00
2021,12,30,04,05,0.00
2021,12,30,04,06,0.00
2021,12,30,04,07,0.00
2021,12,30,04,08,0.00
2021,12,30,04,09,0.00
2021,12,30,04,10,0.00
2021,12,30,04,11,0.00
2021,12,30,04,12,0.00
2021,12,30,04,13,0.00
2021,12,30,04,14,0.00
2021,12,30,04,15,0.00
2021,12,30,04,16,0.00
2021,12,30,04,17,0.00
2021,12,30,04,18,0.00
2021,12,30,04,19,0.00
2021,12,30,04,20,0.00
2021,12,30,04,21,0.00
2021,12,30,04,22,0.00
2021,12,30,04,23,0.00
2021,12,30,04,24,0.00
2021,12,30,04,25,0.00
2021,12,30,04,26,0.00
2021,12,30,04,27,0.00
2021,12,30,04,28,0.00
2021,12,30,04,29,0.00
2021,12,30,04,30,0.00
2021,12,30,04,31,0.00
2021,12,30,04,32,0.00
2021,12,30,04,33,0.00
2021,12,30,04,34,0.00
2021,12,30,04,35,0.00
2021,12,30,04,36,0.00
2021,12,30,04,37,0.00
2021,12,30,04,38,0.00
2021,12,30,04,39,0.00
2021,12,30,04,40,0.00
2021,12,30,04,41,0.00
2021,12,30,04,42,0.00
2021,12,30,04,43,0.00
2021,12,30,04,44,0.00
2021,12,30,04,45,0.00
2021,12,30,04,46,0.00
2021,12,30,04,47,0.00
2021,12,30,04,48,0.00
2021,12,30,04,49,0.00
2021,12,30,04,50,0.00
2021,12,30,04,51,0.00
2021,12,30,04,52,0.00
2021,12,30,04,53,0.00
2021,12,30,04,54,0.00
2021,12,30,04,55,0.00
2021,12,30,04,56,0.00
2021,12,30,04,57,0.00
2021,12,30,04,58,0.00
2021,12,30,04,59,0.00
2021,12,30,05,00,0.00
2021,12,30,05,01,0.00
2021,12,30,05,02,0.00
2021,12,30,05,03,0.00
2021,12,30,05,04,0.00
2021,12,30,05,05,0.00
2021,12,30,05,06,0.00
2021,12,30,05,07,0.00
2021,12,30,05,08,0.00
2021,12,30,05,09,0.00
2021,12,30,05,10,0.00
2021,12,30,05,11,0.00
2021,12,30,05,12,0.00
2021,12,30,05,13,0.00
2021,12,30,05,14,0.00
2021,12,30,05,15,0.00
2021,12,30,05,16,0.00
2021,12,30,05,17,0.00
2021,12,30,05,18,0.00
2021,12,30,05,19,0.00
2021,12,30,05,20,0.00
2021,12,30,05,21,0.00
2021,12,30,05,22,0.00
2021,12,30,05,23,0.00
2021,12,30,05,24,0.00
2021,12,30,05,25,0.00
2021,12,30,05,26,0.00
2021,12,30,05,27,0.00
2021,12,30,05,28,0.00
2021,12,30,05,29,0.00
2021,12,30,05,30,0.00
2021,12,30,05,31,0.00
2021,12,30,05,32,0.00
2021,12,30,05,33,0.00
2021,12,30,05,34,0.00
2021,12,30,05,35,0.00
2021,12,30,05,36,0.00
2021,12,30,05,37,0.00
2021,12,30,05,38,0.00
2021,12,30,05,39,0.00
2021,12,30,05,40,0.00
2021,12,30,05,41,0.00
2021,12,30,05,42,0.00
2021,12,30,05,43,0.00
2021,12,30,05,44,0.00
2021,12,30,05,45,0.00
2021,12,30,05,46,0.00
2021,12,30,05,47,0.00
2021,12,30,05,48,0.00
2021,12,30,05,49,0.00
2021,12,30,05,50,0.00
2021,12,30,05,51,0.00
2021,12,30,05,52,0.00
2021,12,30,05,53,0.00
2021,12,30,05,54,0.00
2021,12,30,05,55,0.00
2021,12,30,05,56,0.00
2021,12,30,05,57,0.00
2021,12,30,05,58,0.00
2021,12,30,05,59,0.00
2021,12,30,06,00,0.00
2021,12,30,06,01,0.00
2021,12,30,06,02,0.00
2021,12,30,06,03,0.00
2021,12,30,06,04,0.00
2021,12,30,06,05,0.00
2021,12,30,06,06,0.00
2021,12,30,06,07,0.00
2021,12,30,06,08,0.00
2021,12,30,06,09,0.00
2021,12,30,06,10,0.00
2021,12,30,06,11,0.00
2021,12,30,06,12,0.00
2021,12,30,06,13,0.00
2021,12,30,06,14,0.00
2021,12,30,06,15,0.00
2021,12,30,06,16,0.00
2021,12,30,06,17,0.00
2021,12,30,06,18,0.00
2021,12,30,06,19,0.00
2021,12,30,06,20,0.00
2021,12,30,06,21,0.00
2021,12,30,06,22,0.00
2021,12,30,06,23,0.00
2021,12,30,06,24,0.00
2021,12,30,06,25,0.00
2021,12,30,06,26,0.00
2021,12,30,06,27,0.00
2021,12,30,06,28,0.00
2021,12,30,06,29,0.00
2021,12,30,06,30,0.00
2021,12,30,06,31,0.00
2021,12,30,06,32,0.00
2021,12,30,06,33,0.00
2021,12,30,06,34,0.00
2021,12,30,06,35,0.00
2021,12,30,06,36,0.00
2021,12,30,06,37,0.00
2021,12,30,06,38,0.00
2021,12,30,06,39,0.00
2021,12,30,06,40,0.00
2021,12,30,06,41,0.00
2021,12,30,06,42,0.00
2021,12,30,06,43,0.00
2021,12,30,06,44,0.00
2021,12,30,06,45,0.00
2021,12,30,06,46,0.00
2021,12,30,06,47,0.00
2021,12,30,06,48,0.00
2021,12,30,06,49,0.00
2021,12,30,06,50,0.00
2021,12,30,06,51,0.00
2021,12,30,06,52,0.00
2021,12,30,06,53,0.00
2021,12,30,06,54,0.00
2021,12,30,06,55,0.00
2021,12,30,06,56,0.00
2021,12,30,06,57,0.00
2021,12,30,06,58,0.00
2021,12,30,06,59,0.00
2021,12,30,07,00,0.00
2021,12,30,07,01,0.00
2021,12,30,07,02,0.00
2021,12,30,07,03,0.00
2021,12,30,07,04,0.00
2021,12,30,07,05,0.00
2021,12,30,07,06,0.00
2021,12,30,07,07,0.00
2021,12,30,07,08,0.00
2021,12,30,07,09,0.00
2021,12,30,07,10,0.00
2021,12,30,07,11,0.00
2021,12,30,07,12,0.00
2021,12,30,07,13,0.00
2021,12,30,07,14,0.00
2021,12,30,07,15,0.00
2021,12,30,07,16,0.00
2021,12,30,07,17,0.00
2021,12,30,07,18,0.00
2021,12,30,07,19,0.00
2021,12,30,07,20,0.00
2021,12,30,07,21,0.00
2021,12,30,07,22,0.00
2021,12,30,07,23,0.00
2021,12,30,07,24,0.00
2021,12,30,07,25,0.00
2021,12,30,07,26,0.00
2021,12,30,07,27,0.00
2021,12,30,07,28,0.00
2021,12,30,07,29,0.00
2021,12,30,07,30,0.00
2021,12,30,07,31,0.00
2021,12,30,07,32,0.00
2021,12,30,07,33,0.00
2021,12,30,07,34,0.00
2021,12,30,07,35,0.00
2021,12,30,07,36,0.00
2021,12,30,07,37,0.00
2021,12,30,07,38,0.00
2021,12,30,07,39,0.00
2021,12,30,07,40,0.00
2021,12,30,07,41,0.00
2021,12,30,07,42,0.00
2021,12,30,07,43,0.00
2021,12,30,07,44,0.00
2021,12,30,07,45,0.00
2021,12,30,07,46,0.00
2021,12,30,07,47,0.00
2021,12,30,07,48,0.00
2021,12,30,07,49,0.00
2021,12,30,07,50,0.00
2021,12,30,07,51,0.00
2021,12,30,07,52,0.00
2021,12,30,07,53,0.00
2021,12,30,07,54,0.00
2021,12,30,07,55,0.00
2021,12,30,07,56,0.00
2021,12,30,07,57,0.00
2021,12,30,07,58,0.00
2021,12,30,07,59,0.00
2021,12,30,08,00,0.00
2021,12,30,08,01,0.00
2021,12,30,08,02,0.00
2021,12,30,08,03,0.00
2021,12,30,08,04,0.00
2021,12,30,08,05,0.00
2021,12,30,08,06,0.00
2021,12,30,08,07,0.00
2021,12,30,08,08,0.00
2021,12,30,08,09,0.00
2021,12,30,08,10,0.00
2021,12,30,08,11,0.00
2021,12,30,08,12,0.00
2021,12,30,08,13,0.00
2021,12,30,08,14,0.00
2021,12,30,08,15,0.00
2021,12,30,08,16,0.00
2021,12,30,08,17,0.00
2021,12,30,08,18,0.00
2021,12,30,08,19,0.00
2021,12,30,08,20,0.00
2021,12,30,08,21,0.00
2021,12,30,08,22,0.00
2021,12,30,08,23,0.00
2021,12,30,08,24,0.00
2021,12,30,08,25,0.00
2021,12,30,08,26,0.00
2021,12,30,08,27,0.00
2021,12,30,08,28,0.00
2021,12,30,08,29,0.00
2021,12,30,08,30,0.00
2021,12,30,08,31,0.00
2021,12,30,08,32,1.20
2021,12,30,08,33,5.00
2021,12,30,08,34,5.00
2021,12,30,08,35,5.00
2021,12,30,08,36,5.00
2021,12,30,08,37,5.00
2021,12,30,08,38,5.00
2021,12,30,08,39,5.00
2021,12,30,08,40,5.00
2021,12,30,08,41,5.90
2021,12,30,08,42,7.00
2021,12,30,08,43,7.00
2021,12,30,08,44,8.70
2021,12,30,08,45,11.10
2021,12,30,08,46,13.60
2021,12,30,08,47,11.70
2021,12,30,08,48,11.00
2021,12,30,08,49,11.00
2021,12,30,08,50,11.00
2021,12,30,08,51,11.00
2021,12,30,08,52,11.10
2021,12,30,08,53,12.00
2021,12,30,08,54,12.00
2021,12,30,08,55,12.90
2021,12,30,08,56,14.00
2021,12,30,08,57,14.00
2021,12,30,08,58,14.00
2021,12,30,08,59,14.00
2021,12,30,09,00,14.00
2021,12,30,09,01,14.60
2021,12,30,09,02,16.00
2021,12,30,09,03,17.20
2021,12,30,09,04,26.60
2021,12,30,09,05,42.90
2021,12,30,09,06,46.00
2021,12,30,09,07,35.00
2021,12,30,09,08,33.40
2021,12,30,09,09,29.10
2021,12,30,09,10,32.00
2021,12,30,09,11,30.00
2021,12,30,09,12,25.60
2021,12,30,09,13,22.10
2021,12,30,09,14,29.80
2021,12,30,09,15,21.90
2021,12,30,09,16,28.00
2021,12,30,09,17,25.20
2021,12,30,09,18,18.20
2021,12,30,09,19,14.30
2021,12,30,09,20,14.00
2021,12,30,09,21,14.80
2021,12,30,09,22,18.00
2021,12,30,09,23,17.10
2021,12,30,09,24,16.00
2021,12,30,09,25,16.00
2021,12,30,09,26,17.60
2021,12,30,09,27,15.90
2021,12,30,09,28,14.00
2021,12,30,09,29,14.00
2021,12,30,09,30,14.90
2021,12,30,09,31,17.20
2021,12,30,09,32,18.70
2021,12,30,09,33,16.50
2021,12,30,09,34,16.20
2021,12,30,09,35,18.00
2021,12,30,09,36,21.20
2021,12,30,09,37,28.80
2021,12,30,09,38,35.20
2021,12,30,09,39,47.30
2021,12,30,09,40,56.90
2021,12,30,09,41,50.80
2021,12,30,09,42,41.60
2021,12,30,09,43,46.20
2021,12,30,09,44,63.80
2021,12,30,09,45,65.40
2021,12,30,09,46,52.60
2021,12,30,09,47,43.30
2021,12,30,09,48,31.30
2021,12,30,09,49,19.00
2021,12,30,09,50,23.90
2021,12,30,09,51,25.50
2021,12,30,09,52,21.50
2021,12,30,09,53,20.40
2021,12,30,09,54,21.00
2021,12,30,09,55,19.00
2021,12,30,09,56,18.00
2021,12,30,09,57,18.30
2021,12,30,09,58,20.80
2021,12,30,09,59,20.10
2021,12,30,10,00,18.70
2021,12,30,10,01,20.70
2021,12,30,10,02,21.50
2021,12,30,10,03,26.70
2021,12,30,10,04,21.00
2021,12,30,10,05,20.10
2021,12,30,10,06,22.50
2021,12,30,10,07,28.50
2021,12,30,10,08,30.00
2021,12,30,10,09,21.10
2021,12,30,10,10,17.60
2021,12,30,10,11,16.70
2021,12,30,10,12,28.60
2021,12,30,10,13,51.20
2021,12,30,10,14,49.70
2021,12,30,10,15,30.90
2021,12,30,10,16,21.80
2021,12,30,10,17,26.50
2021,12,30,10,18,36.80
2021,12,30,10,19,46.20
2021,12,30,10,20,50.20
2021,12,30,10,21,42.70
2021,12,30,10,22,31.40
2021,12,30,10,23,27.60
2021,12,30,10,24,22.70
2021,12,30,10,25,39.60
2021,12,30,10,26,81.60
2021,12,30,10,27,137.00
2021,12,30,10,28,162.20
2021,12,30,10,29,168.40
2021,12,30,10,30,176.00
2021,12,30,10,31,183.00
2021,12,30,10,32,184.70
2021,12,30,10,33,192.80
2021,12,30,10,34,203.60
2021,12,30,10,35,216.00
2021,12,30,10,36,230.20
2021,12,30,10,37,238.90
2021,12,30,10,38,246.50
2021,12,30,10,39,259.50
2021,12,30,10,40,266.80
2021,12,30,10,41,285.20
2021,12,30,10,42,319.20
2021,12,30,10,43,345.10
2021,12,30,10,44,381.20
2021,12,30,10,45,415.40
2021,12,30,10,46,437.80
2021,12,30,10,47,452.00
2021,12,30,10,48,418.90
2021,12,30,10,49,348.60
2021,12,30,10,50,330.00
2021,12,30,10,51,147.00
2021,12,30,10,52,143.60
2021,12,30,10,53,218.00
2021,12,30,10,54,218.00
2021,12,30,10,55,381.30
2021,12,30,10,56,502.40
2021,12,30,10,57,492.50
2021,12,30,10,58,485.40
2021,12,30,10,59,487.30
2021,12,30,11,00,476.00
2021,12,30,11,01,476.00
2021,12,30,11,02,476.00
2021,12,30,11,03,476.00
2021,12,30,11,04,458.20
2021,12,30,11,05,455.00
2021,12,30,11,06,455.00
2021,12,30,11,07,458.50
2021,12,30,11,08,466.90
2021,12,30,11,09,468.00
2021,12,30,11,10,468.00
2021,12,30,11,11,305.70
2021,12,30,11,12,281.20
2021,12,30,11,13,448.80
2021,12,30,11,14,413.80
2021,12,30,11,15,318.30
2021,12,30,11,16,265.00
2021,12,30,11,17,184.70
2021,12,30,11,18,143.30
2021,12,30,11,19,112.50
2021,12,30,11,20,76.80
2021,12,30,11,21,60.60
2021,12,30,11,22,62.50
2021,12,30,11,23,74.20
2021,12,30,11,24,96.20
2021,12,30,11,25,106.20
2021,12,30,11,26,102.20
2021,12,30,11,27,49.50
2021,12,30,11,28,68.00
2021,12,30,11,29,68.00
2021,12,30,11,30,49.00
2021,12,30,11,31,108.50
2021,12,30,11,32,135.00
2021,12,30,11,33,160.50
2021,12,30,11,34,454.00
2021,12,30,11,35,308.30
2021,12,30,11,36,33.00
2021,12,30,11,37,33.00
2021,12,30,11,38,33.00
2021,12,30,11,39,33.00
2021,12,30,11,40,462.50
2021,12,30,11,41,484.40
2021,12,30,11,42,483.70
2021,12,30,11,43,487.90
2021,12,30,11,44,489.00
2021,12,30,11,45,489.00
2021,12,30,11,46,489.00
2021,12,30,11,47,476.10
2021,12,30,11,48,475.00
2021,12,30,11,49,391.50
2021,12,30,11,50,214.00
2021,12,30,11,51,380.70
2021,12,30,11,52,507.80
2021,12,30,11,53,498.70
2021,12,30,11,54,491.20
2021,12,30,11,55,453.40
2021,12,30,11,56,440.20
2021,12,30,11,57,445.20
2021,12,30,11,58,439.90
2021,12,30,11,59,435.40
2021,12,30,12,00,403.00
2021,12,30,12,01,389.60
2021,12,30,12,02,379.70
2021,12,30,12,03,367.90
2021,12,30,12,04,348.50
2021,12,30,12,05,330.00
2021,12,30,12,06,319.10
2021,12,30,12,07,316.40
2021,12,30,12,08,308.20
2021,12,30,12,09,306.00
2021,12,30,12,10,306.00
2021,12,30,12,11,303.70
2021,12,30,12,12,297.10
2021,12,30,12,13,294.00
2021,12,30,12,14,294.00
2021,12,30,12,15,294.20
2021,12,30,12,16,276.00
2021,12,30,12,17,276.00
2021,12,30,12,18,284.40
2021,12,30,12,19,299.00
2021,12,30,12,20,304.80
2021,12,30,12,21,277.40
2021,12,30,12,22,272.00
2021,12,30,12,23,282.60
2021,12,30,12,24,325.00
2021,12,30,12,25,201.80
2021,12,30,12,26,58.00
2021,12,30,12,27,70.50
2021,12,30,12,28,99.40
2021,12,30,12,29,103.30
2021,12,30,12,30,101.00
2021,12,30,12,31,108.20
2021,12,30,12,32,81.00
2021,12,30,12,33,81.00
2021,12,30,12,34,82.40
2021,12,30,12,35,83.00
2021,12,30,12,36,83.60
2021,12,30,12,37,94.40
2021,12,30,12,38,126.80
2021,12,30,12,39,153.00
2021,12,30,12,40,230.30
2021,12,30,12,41,307.10
2021,12,30,12,42,316.00
2021,12,30,12,43,124.90
2021,12,30,12,44,109.00
2021,12,30,12,45,109.00
2021,12,30,12,46,198.30
2021,12,30,12,47,317.70
2021,12,30,12,48,308.80
2021,12,30,12,49,306.00
2021,12,30,12,50,291.40
2021,12,30,12,51,116.00
2021,12,30,12,52,175.10
2021,12,30,12,53,301.50
2021,12,30,12,54,246.10
2021,12,30,12,55,231.40
2021,12,30,12,56,274.90
2021,12,30,12,57,201.50
2021,12,30,12,58,125.10
2021,12,30,12,59,105.80
2021,12,30,13,00,84.90
2021,12,30,13,01,51.00
2021,12,30,13,02,59.30
2021,12,30,13,03,62.20
2021,12,30,13,04,74.00
2021,12,30,13,05,46.00
2021,12,30,13,06,40.50
2021,12,30,13,07,35.20
2021,12,30,13,08,32.40
2021,12,30,13,09,29.20
2021,12,30,13,10,29.70
2021,12,30,13,11,28.20
2021,12,30,13,12,34.30
2021,12,30,13,13,44.00
2021,12,30,13,14,139.00
2021,12,30,13,15,243.80
2021,12,30,13,16,179.40
2021,12,30,13,17,109.00
2021,12,30,13,18,65.30
2021,12,30,13,19,52.80
2021,12,30,13,20,60.00
2021,12,30,13,21,67.40
2021,12,30,13,22,116.90
2021,12,30,13,23,206.50
2021,12,30,13,24,247.30
2021,12,30,13,25,254.80
2021,12,30,13,26,255.00
2021,12,30,13,27,255.00
2021,12,30,13,28,255.00
2021,12,30,13,29,253.90
2021,12,30,13,30,255.80
2021,12,30,13,31,253.70
2021,12,30,13,32,252.10
2021,12,30,13,33,241.40
2021,12,30,13,34,244.00
2021,12,30,13,35,246.00
2021,12,30,13,36,244.80
2021,12,30,13,37,244.00
2021,12,30,13,38,249.90
2021,12,30,13,39,251.00
2021,12,30,13,40,251.80
2021,12,30,13,41,250.20
2021,12,30,13,42,220.80
2021,12,30,13,43,182.90
2021,12,30,13,44,125.50
2021,12,30,13,45,62.00
2021,12,30,13,46,60.20
2021,12,30,13,47,48.00
2021,12,30,13,48,56.10
2021,12,30,13,49,61.60
2021,12,30,13,50,52.20
2021,12,30,13,51,46.00
2021,12,30,13,52,46.80
2021,12,30,13,53,40.00
2021,12,30,13,54,37.60
2021,12,30,13,55,39.00
2021,12,30,13,56,34.80
2021,12,30,13,57,32.00
2021,12,30,13,58,32.70
2021,12,30,13,59,32.20
2021,12,30,14,00,30.10
2021,12,30,14,01,30.00
2021,12,30,14,02,30.00
2021,12,30,14,03,30.00
2021,12,30,14,04,30.00
2021,12,30,14,05,30.00
2021,12,30,14,06,30.00
2021,12,30,14,07,30.00
2021,12,30,14,08,30.00
2021,12,30,14,09,30.00
2021,12,30,14,10,30.00
2021,12,30,14,11,30.00
2021,12,30,14,12,32.10
2021,12,30,14,13,34.70
2021,12,30,14,14,35.30
2021,12,30,14,15,40.50
2021,12,30,14,16,47.00
2021,12,30,14,17,43.60
2021,12,30,14,18,40.70
2021,12,30,14,19,43.40
2021,12,30,14,20,42.30
2021,12,30,14,21,38.90
2021,12,30,14,22,29.60
2021,12,30,14,23,28.60
2021,12,30,14,24,30.00
2021,12,30,14,25,31.20
2021,12,30,14,26,32.70
2021,12,30,14,27,36.20
2021,12,30,14,28,46.40
2021,12,30,14,29,48.00
2021,12,30,14,30,42.70
2021,12,30,14,31,43.80
2021,12,30,14,32,49.00
2021,12,30,14,33,49.00
2021,12,30,14,34,59.50
2021,12,30,14,35,68.80
2021,12,30,14,36,69.30
2021,12,30,14,37,52.20
2021,12,30,14,38,38.70
2021,12,30,14,39,37.00
2021,12,30,14,40,37.00
2021,12,30,14,41,37.00
2021,12,30,14,42,32.10
2021,12,30,14,43,28.00
2021,12,30,14,44,27.40
2021,12,30,14,45,26.00
2021,12,30,14,46,26.00
2021,12,30,14,47,26.00
2021,12,30,14,48,26.00
2021,12,30,14,49,26.00
2021,12,30,14,50,26.00
2021,12,30,14,51,26.00
2021,12,30,14,52,26.00
2021,12,30,14,53,26.00
2021,12,30,14,54,26.00
2021,12,30,14,55,26.00
2021,12,30,14,56,25.00
2021,12,30,14,57,25.00
2021,12,30,14,58,25.00
2021,12,30,14,59,25.00
2021,12,30,15,00,25.00
2021,12,30,15,01,25.00
2021,12,30,15,02,23.40
2021,12,30,15,03,23.00
2021,12,30,15,04,23.00
2021,12,30,15,05,23.00
2021,12,30,15,06,23.00
2021,12,30,15,07,23.00
2021,12,30,15,08,23.00
2021,12,30,15,09,23.00
2021,12,30,15,10,23.00
2021,12,30,15,11,22.60
2021,12,30,15,12,21.00
2021,12,30,15,13,21.00
2021,12,30,15,14,21.00
2021,12,30,15,15,21.00
2021,12,30,15,16,21.00
2021,12,30,15,17,21.00
2021,12,30,15,18,21.00
2021,12,30,15,19,21.00
2021,12,30,15,20,21.00
2021,12,30,15,21,21.00
2021,12,30,15,22,19.60
2021,12,30,15,23,19.00
2021,12,30,15,24,19.00
2021,12,30,15,25,19.00
2021,12,30,15,26,19.00
2021,12,30,15,27,19.00
2021,12,30,15,28,19.00
2021,12,30,15,29,18.30
2021,12,30,15,30,18.00
2021,12,30,15,31,18.00
2021,12,30,15,32,18.00
2021,12,30,15,33,18.00
2021,12,30,15,34,18.00
2021,12,30,15,35,18.00
2021,12,30,15,36,18.00
2021,12,30,15,37,16.30
2021,12,30,15,38,16.00
2021,12,30,15,39,16.00
2021,12,30,15,40,16.00
2021,12,30,15,41,16.00
2021,12,30,15,42,16.00
2021,12,30,15,43,14.60
2021,12,30,15,44,14.00
2021,12,30,15,45,14.00
2021,12,30,15,46,14.00
2021,12,30,15,47,14.00
2021,12,30,15,48,14.00
2021,12,30,15,49,14.00
2021,12,30,15,50,12.60
2021,12,30,15,51,12.00
2021,12,30,15,52,12.00
2021,12,30,15,53,12.00
2021,12,30,15,54,12.00
2021,12,30,15,55,12.00
2021,12,30,15,56,12.00
2021,12,30,15,57,11.30
2021,12,30,15,58,11.80
2021,12,30,15,59,11.10
2021,12,30,16,00,11.00
2021,12,30,16,01,11.00
2021,12,30,16,02,11.00
2021,12,30,16,03,11.00
2021,12,30,16,04,11.00
2021,12,30,16,05,11.00
2021,12,30,16,06,9.20
2021,12,30,16,07,9.00
2021,12,30,16,08,9.00
2021,12,30,16,09,9.00
2021,12,30,16,10,9.00
2021,12,30,16,11,7.60
2021,12,30,16,12,7.00
2021,12,30,16,13,7.00
2021,12,30,16,14,7.00
2021,12,30,16,15,7.00
2021,12,30,16,16,7.00
2021,12,30,16,17,7.00
2021,12,30,16,18,5.60
2021,12,30,16,19,5.00
2021,12,30,16,20,5.00
2021,12,30,16,21,5.00
2021,12,30,16,22,5.00
2021,12,30,16,23,5.00
2021,12,30,16,24,5.00
2021,12,30,16,25,1.40
2021,12,30,16,26,0.00
2021,12,30,16,27,0.00
2021,12,30,16,28,0.00
2021,12,30,16,29,0.00
2021,12,30,16,30,0.00
2021,12,30,16,31,0.00
2021,12,30,16,32,0.00
2021,12,30,16,33,0.00
2021,12,30,16,34,0.00
2021,12,30,16,35,0.00
2021,12,30,16,36,0.00
2021,12,30,16,37,0.00
2021,12,30,16,38,0.00
2021,12,30,16,39,0.00
2021,12,30,16,40,0.00
2021,12,30,16,41,0.00
2021,12,30,16,42,0.00
2021,12,30,16,43,0.00
2021,12,30,16,44,0.00
2021,12,30,16,45,0.00
2021,12,30,16,46,0.00
2021,12,30,16,47,0.00
2021,12,30,16,48,0.00
2021,12,30,16,49,0.00
2021,12,30,16,50,0.00
2021,12,30,16,51,0.00
2021,12,30,16,52,0.00
2021,12,30,16,53,0.00
2021,12,30,16,54,0.00
2021,12,30,16,55,0.00
2021,12,30,16,56,0.00
2021,12,30,16,57,0.00
2021,12,30,16,58,0.00
2021,12,30,16,59,0.00
2021,12,30,17,00,0.00
2021,12,30,17,01,0.00
2021,12,30,17,02,0.00
2021,12,30,17,03,0.00
2021,12,30,17,04,0.00
2021,12,30,17,05,0.00
2021,12,30,17,06,0.00
2021,12,30,17,07,0.00
2021,12,30,17,08,0.00
2021,12,30,17,09,0.00
2021,12,30,17,10,0.00
2021,12,30,17,11,0.00
2021,12,30,17,12,0.00
2021,12,30,17,13,0.00
2021,12,30,17,14,0.00
2021,12,30,17,15,0.00
2021,12,30,17,16,0.00
2021,12,30,17,17,0.00
2021,12,30,17,18,0.00
2021,12,30,17,19,0.00
2021,12,30,17,20,0.00
2021,12,30,17,21,0.00
2021,12,30,17,22,0.00
2021,12,30,17,23,0.00
2021,12,30,17,24,0.00
2021,12,30,17,25,0.00
2021,12,30,17,26,0.00
2021,12,30,17,27,0.00
2021,12,30,17,28,0.00
2021,12,30,17,29,0.00
2021,12,30,17,30,0.00
2021,12,30,17,31,0.00
2021,12,30,17,32,0.00
2021,12,30,17,33,0.00
2021,12,30,17,34,0.00
2021,12,30,17,35,0.00
2021,12,30,17,36,0.00
2021,12,30,17,37,0.00
2021,12,30,17,38,0.00
2021,12,30,17,39,0.00